Tracking 29892 objects as of 21-Nov-2024
HD Live streaming from Space Station
objects crossing your sky now

DELTA 1 DEB

Track DELTA 1 DEB now!
10-day predictions


NORAD ID: 12223
Int'l Code: 1978-026BQ
Perigee: 858.5 km
Apogee: 916.2 km
Inclination: 99.2 °
Period: 102.6 minutes
Semi major axis: 7258 km
RCS: 0.0498 m2 (small)
Launch date: March 5, 1978
Source: United States (US)
Launch site: AIR FORCE WESTERN TEST RANGE (AFWTR)

Note: This is SATELLITE DEBRIS
Your satellite tracking list
Your tracking list is empty




NASA's NSSDC Master Catalog

Two Line Element Set (TLE):
1 12223U 78026BQ  24325.88502003  .00000071  00000-0  74017-4 0  9996
2 12223  99.2244 340.7200 0039733 254.7052 104.9721 14.03938336242640
Source of the keplerian elements: AFSPC